Regional Weather Roundup
Issued by NWS Charleston, SC

Current Version | Previous Version | Graphics & Text | Print | Product List | Glossary On
Versions: 1 2 3 4 5 6 7 8 9 10 11 12 13 14 15 16 17 18 19 20 21 22 23 24 25 26 27 28 29 30 31 32 33 34 35 36 37 38 39 40 41 42 43 44 45 46 47 48 49 50
599 ASUS42 KCHS 301412 RWRCHS REGIONAL WEATHER ROUNDUP NATIONAL WEATHER SERVICE CHARLESTON SC 1000 AM EDT THU MAR 30 2017 NOTE: "FAIR" INDICATES FEW OR NO CLOUDS BELOW 12,000 FEET WITH NO SIGNIFICANT WEATHER AND/OR OBSTRUCTIONS TO VISIBILITY. NOT ALL STATIONS ARE QUALITY CONTROLLED. USE DATA WITH CAUTION... ESPECIALLY DEWPOINT OBSERVATIONS. SCZ027-030-031-034>040-042>050-301500- ...SOUTHEAST SOUTH CAROLINA... CITY SKY/WX TMP DP RH WIND PRES REMARKS N CHARLESTON PTSUNNY 74 63 68 E13 30.06R WATERFRONT PRK N/A 70 66 87 E10 30.04S JOHNS ISLAND PTSUNNY 70 66 88 E10 30.06R PINOPOLIS N/A 66 63 88 E6 29.98R MONCKS CORNER FAIR 70 61 73 E6 30.07R SUMMERVILLE FAIR 72 63 73 E7 30.07S BEAUFORT MCAS MOSUNNY 74 68 81 VRB6 30.03F BEAUFORT ARPT FAIR 73 68 83 E5 30.04S HAZE HILTON HEAD IS MOSUNNY 70 66 88 NE9 30.04 WALTERBORO SUNNY 72 64 78 E8G16 30.06S ALLENDALE CLOUDY 72 66 83 SE8G15 30.02F ...SOUTHERN MIDLANDS AND PEE DEE... CITY SKY/WX TMP DP RH WIND PRES REMARKS GEORGETOWN PTSUNNY 68 59 73 E12 30.10R KINGSTREE PTSUNNY 66 55 68 E14 30.09S ORANGEBURG CLOUDY 68 62 81 E8 30.06F BARNWELL CLOUDY 72 66 83 E9 30.04S AIKEN CLOUDY 66 63 88 SE10 30.08R MANNING FAIR 68 59 73 SE8 30.08S COLUMBIA CLOUDY 68 60 75 SE10 30.05F SUMTER CLOUDY 67 58 72 SE9 30.05F FLORENCE CLOUDY 66 56 70 SE14 30.09F MYRTLE BEACH SUNNY 64 55 72 E14 30.11S N MYRTLE BEACH SUNNY 65 55 70 E15G21 30.11S $$ GAZ063-065-086>088-099>101-113>116-118-119-134>141-150-301500- ...SOUTHEAST GEORGIA... CITY SKY/WX TMP DP RH WIND PRES REMARKS SAVANNAH ARPT MOSUNNY 74 66 76 SE7 30.02F HUNTER AAF SUNNY 74 73 96 CALM 30.00F FORT STEWART PTSUNNY 71 66 83 E6 30.00S STATESBORO CLOUDY 72 72 100 SE6 30.02S SYLVANIA CLOUDY N/A N/A N/A SE6 30.04S CLAXTON PTSUNNY N/A N/A N/A E5 30.02S ...CSRA...CENTRAL AND FAR SOUTHEAST GEORGIA... CITY SKY/WX TMP DP RH WIND PRES REMARKS THOMSON CLOUDY 69 63 81 SW8 30.07S AUGUSTA-BUSH CLOUDY 72 65 78 SE8 30.02S AUGUSTA-DANIEL CLOUDY 70 62 76 SE8 30.04S SWAINSBORO PTSUNNY 68 63 83 SE5 30.04R VIDALIA CLOUDY 68 63 83 SE5 30.02S EASTMAN FAIR 70 63 78 CALM 30.04S HAZLEHURST FAIR 70 67 89 SE3 30.00S ALMA CLOUDY 70 64 81 CALM 30.01R WAYCROSS MOSUNNY 74 67 76 CALM 30.01S JESUP CLOUDY 72 64 78 CALM 30.01S BAXLEY CLOUDY 72 70 94 SE3 30.01S BRUNSWICK CLOUDY 73 66 78 SE7 30.02R SAINT SIMONS PTSUNNY 73 64 73 SE9 30.00F $$ SCZ027-028-034-036>038-045-046-048>050-GAZ119-141-301500- ...LAKE AND SUPPLEMENTAL COASTAL OBSERVATIONS... STATION/POSITION TIME TEMP WIND PRES WAVE SWELL AIR SEA DIR/SP/G HT/PER HT/PER/DIR (UTC) (F) (DEG/KT/KT) (MB) (FT/S) (FT/S/D) WINYAH BAY 1245 63 60/ 11 1019.0 LAKE MURRAY 1320 65 110/ 6/ 9 1017.3S ACE BASIN NERRS 1245 69 50/ 3 1017.0 FORT PULASKI 1342 67 67 100/ 7/ 8 1017.1F SAPELO ISLAND 1300 70 80/ 5 1016.0 $$ ANZ835-935-AMZ111-154-330-350-352-354-370-450-454-472-301500- ...C-MAN AND BUOY OBSERVATIONS... STATION/POSITION TIME TEMP WIND PRES WAVE SWELL AIR SEA DIR/SP/G HT/PER HT/PER/DIR (UTC) (F) (DEG/KT/KT) (MB) (FT/S) (FT/S/D) BUOY 41004 1250 72 70 90/ 14/ 17 1017.0 5/ 9 3/120/ 9 BUOY 41008 1250 66 65 90/ 6/ 8 1016.2 2/ 9 2/ 80/ 9 FOLLY BEACH CMAN 1300 65 80/ 9/ 10 1018.1R CAPERS NEARSHORE NOT AVBL FRIPP NEARSHORE 1308 65 63 70/ 6/ 8 1016.8R STATION/POSITION TIME TEMP WIND PRES WAVE SWELL AIR SEA DIR/SP/G HT/PER HT/PER/DIR (UTC) (F) (DEG/KT/KT) (MB) (FT/S) (FT/S/D) 5E ST. MARYS GA 1330 68 N/A 3/ 9 2/110/11 FRYING PAN BUOY 1350 70 75 80/ 14/ 17 1019.3S 4/10 3/120/10 BUOY 41025 1350 62 77 40/ 14/ 17 1021.4R 7/ 9 5/ 70/ 9 CAPE LOOKOUT NC 1300 61 30/ 16/ 18 1020.7R BUOY 41002 1350 68 72 80/ 10/ 12 1019.4R 6/10 5/ 90/10 BUOY 41010 NOT AVBL ST AUGUSTINE FL 1400 69 67 160/ 10/ 11 1017.1R $$

USA.gov is the U.S. government's official web portal to all federal, state and local government web resources and services.